contact:dominique.lefevre@mio.osupytheas.fr, maurice.libes@osupytheas.fr, didier.mallarino@osupytheas.fr
Project:EMSO http://www.emso-fr.org/EMSO-France
Depth: 2436.0 m
Title:EMSO Ligure Ouest : Data MII capteur MICROCAT
DateTime_Computer,Latitude,Longitude,Temperature,Conductivity,Pressure,DateTime_Instrument
DateTime_Computer,Latitude,Longitude,degC,S m-1,dbar,DateTime_Instrument
2019-11-21T00:01:26Z,42.805,6.029,13.2957,4.59960,2469.993,2019-11-21T02:01:54Z
2019-11-21T00:04:29Z,42.805,6.029,13.2958,4.59961,2469.993,2019-11-21T02:04:57Z
2019-11-21T00:07:32Z,42.805,6.029,13.2957,4.59960,2469.993,2019-11-21T02:08:00Z
2019-11-21T00:10:35Z,42.805,6.029,13.2959,4.59959,2469.984,2019-11-21T02:11:03Z
2019-11-21T00:13:39Z,42.805,6.029,13.2958,4.59958,2470.04,2019-11-21T02:14:07Z
2019-11-21T00:16:42Z,42.805,6.029,13.2958,4.59960,2469.993,2019-11-21T02:17:10Z
2019-11-21T00:19:45Z,42.805,6.029,13.2957,4.59963,2470.03,2019-11-21T02:20:13Z
2019-11-21T00:22:48Z,42.805,6.029,13.2958,4.59961,2470.017,2019-11-21T02:23:16Z
2019-11-21T00:25:51Z,42.805,6.029,13.2958,4.59960,2469.993,2019-11-21T02:26:20Z
2019-11-21T00:28:55Z,42.805,6.029,13.2960,4.59961,2469.984,2019-11-21T02:29:23Z
2019-11-21T00:31:58Z,42.805,6.029,13.2961,4.59963,2469.993,2019-11-21T02:32:26Z
2019-11-21T00:35:01Z,42.805,6.029,13.2957,4.59960,2470.053,2019-11-21T02:35:30Z
2019-11-21T00:38:05Z,42.805,6.029,13.2958,4.59959,2469.97,2019-11-21T02:38:33Z
2019-11-21T00:41:08Z,42.805,6.029,13.2957,4.59961,2470.017,2019-11-21T02:41:36Z
2019-11-21T00:44:11Z,42.805,6.029,13.2958,4.59960,2470.04,2019-11-21T02:44:39Z
2019-11-21T00:47:14Z,42.805,6.029,13.2956,4.59961,2469.993,2019-11-21T02:47:43Z
2019-11-21T00:50:18Z,42.805,6.029,13.2961,4.59963,2470.017,2019-11-21T02:50:46Z
2019-11-21T00:53:21Z,42.805,6.029,13.2959,4.59966,2470.03,2019-11-21T02:53:49Z
2019-11-21T00:56:24Z,42.805,6.029,13.2954,4.59962,2470.04,2019-11-21T02:56:52Z
2019-11-21T00:59:28Z,42.805,6.029,13.2960,4.59963,2469.993,2019-11-21T02:59:56Z
2019-11-21T01:02:31Z,42.805,6.029,13.2960,4.59961,2470.03,2019-11-21T03:02:59Z
2019-11-21T01:05:34Z,42.805,6.029,13.2961,4.59961,2469.97,2019-11-21T03:06:02Z
2019-11-21T01:08:37Z,42.805,6.029,13.2958,4.59963,2470.053,2019-11-21T03:09:06Z
2019-11-21T01:11:41Z,42.805,6.029,13.2957,4.59962,2469.993,2019-11-21T03:12:09Z
2019-11-21T01:14:44Z,42.805,6.029,13.2958,4.59962,2470.017,2019-11-21T03:15:12Z
2019-11-21T01:17:47Z,42.805,6.029,13.2953,4.59960,2470.017,2019-11-21T03:18:15Z
2019-11-21T01:20:50Z,42.805,6.029,13.2957,4.59964,2470.007,2019-11-21T03:21:18Z
2019-11-21T01:23:54Z,42.805,6.029,13.2953,4.59961,2470.04,2019-11-21T03:24:22Z
2019-11-21T01:26:57Z,42.805,6.029,13.2957,4.59961,2470.03,2019-11-21T03:27:25Z
2019-11-21T01:30:00Z,42.805,6.029,13.2957,4.59959,2470.053,2019-11-21T03:30:29Z
2019-11-21T01:33:04Z,42.805,6.029,13.2959,4.59963,2470.007,2019-11-21T03:33:32Z
2019-11-21T01:36:07Z,42.805,6.029,13.2961,4.59961,2470.007,2019-11-21T03:36:35Z
2019-11-21T01:39:10Z,42.805,6.029,13.2958,4.59963,2470.04,2019-11-21T03:39:38Z
2019-11-21T01:42:13Z,42.805,6.029,13.2956,4.59963,2470.007,2019-11-21T03:42:42Z
2019-11-21T01:45:17Z,42.805,6.029,13.2961,4.59966,2470.017,2019-11-21T03:45:45Z
2019-11-21T01:48:20Z,42.805,6.029,13.2962,4.59964,2470.03,2019-11-21T03:48:48Z
2019-11-21T01:51:23Z,42.805,6.029,13.2960,4.59961,2469.993,2019-11-21T03:51:51Z
2019-11-21T01:54:27Z,42.805,6.029,13.2958,4.59961,2470.04,2019-11-21T03:54:55Z
2019-11-21T01:57:30Z,42.805,6.029,13.2957,4.59963,2470.03,2019-11-21T03:57:58Z
2019-11-21T02:00:33Z,42.805,6.029,13.2960,4.59961,2470.007,2019-11-21T04:01:01Z
2019-11-21T02:03:36Z,42.805,6.029,13.2959,4.59964,2470.017,2019-11-21T04:04:04Z
2019-11-21T02:06:39Z,42.805,6.029,13.2956,4.59961,2470.007,2019-11-21T04:07:08Z
2019-11-21T02:09:43Z,42.805,6.029,13.2960,4.59963,2469.993,2019-11-21T04:10:11Z
2019-11-21T02:12:46Z,42.805,6.029,13.2957,4.59961,2470.03,2019-11-21T04:13:14Z
2019-11-21T02:15:49Z,42.805,6.029,13.2956,4.59966,2470.03,2019-11-21T04:16:17Z
2019-11-21T02:18:52Z,42.805,6.029,13.2956,4.59962,2470.003,2019-11-21T04:19:21Z
2019-11-21T02:21:56Z,42.805,6.029,13.2959,4.59968,2470.053,2019-11-21T04:22:24Z
2019-11-21T02:24:59Z,42.805,6.029,13.2959,4.59964,2470.03,2019-11-21T04:25:27Z
2019-11-21T02:28:02Z,42.805,6.029,13.2957,4.59964,2470.021,2019-11-21T04:28:30Z
2019-11-21T02:31:06Z,42.805,6.029,13.2958,4.59961,2470.077,2019-11-21T04:31:34Z
2019-11-21T02:34:09Z,42.805,6.029,13.2957,4.59964,2470.04,2019-11-21T04:34:37Z
2019-11-21T02:37:12Z,42.805,6.029,13.2957,4.59961,2469.979,2019-11-21T04:37:40Z
2019-11-21T02:40:15Z,42.805,6.029,13.2958,4.59964,2470.04,2019-11-21T04:40:44Z
2019-11-21T02:43:19Z,42.805,6.029,13.2957,4.59963,2470.017,2019-11-21T04:43:47Z
2019-11-21T02:46:22Z,42.805,6.029,13.2957,4.59965,2470.017,2019-11-21T04:46:50Z
2019-11-21T02:49:25Z,42.805,6.029,13.2958,4.59964,2470.007,2019-11-21T04:49:53Z
2019-11-21T02:52:28Z,42.805,6.029,13.2958,4.59964,2470.017,2019-11-21T04:52:57Z
2019-11-21T02:55:32Z,42.805,6.029,13.2957,4.59962,2470.063,2019-11-21T04:56:00Z
2019-11-21T02:58:35Z,42.805,6.029,13.2957,4.59962,2470.003,2019-11-21T04:59:03Z
2019-11-21T03:01:38Z,42.805,6.029,13.2960,4.59973,2470.063,2019-11-21T05:02:07Z
2019-11-21T03:04:42Z,42.805,6.029,13.2956,4.59961,2470.03,2019-11-21T05:05:10Z
2019-11-21T03:07:45Z,42.805,6.029,13.2958,4.59964,2469.993,2019-11-21T05:08:13Z
2019-11-21T03:10:48Z,42.805,6.029,13.2957,4.59964,2470.007,2019-11-21T05:11:16Z
2019-11-21T03:13:51Z,42.805,6.029,13.2953,4.59964,2470.017,2019-11-21T05:14:20Z
2019-11-21T03:16:55Z,42.805,6.029,13.2953,4.59961,2469.993,2019-11-21T05:17:23Z
2019-11-21T03:19:58Z,42.805,6.029,13.2958,4.59963,2469.993,2019-11-21T05:20:26Z
2019-11-21T03:23:01Z,42.805,6.029,13.2961,4.59962,2470.017,2019-11-21T05:23:29Z
2019-11-21T03:26:04Z,42.805,6.029,13.2958,4.59960,2470.017,2019-11-21T05:26:33Z
2019-11-21T03:29:08Z,42.805,6.029,13.2955,4.59966,2470.017,2019-11-21T05:29:36Z
2019-11-21T03:32:11Z,42.805,6.029,13.2957,4.59965,2469.993,2019-11-21T05:32:39Z
2019-11-21T03:35:14Z,42.805,6.029,13.2961,4.59962,2469.993,2019-11-21T05:35:42Z
2019-11-21T03:38:18Z,42.805,6.029,13.2957,4.59966,2470.017,2019-11-21T05:38:46Z
2019-11-21T03:41:21Z,42.805,6.029,13.2960,4.59963,2470.017,2019-11-21T05:41:49Z
2019-11-21T03:44:24Z,42.805,6.029,13.2953,4.59966,2470.04,2019-11-21T05:44:52Z
2019-11-21T03:47:27Z,42.805,6.029,13.2961,4.59968,2469.993,2019-11-21T05:47:55Z
2019-11-21T03:50:30Z,42.805,6.029,13.2957,4.59963,2470.017,2019-11-21T05:50:59Z
2019-11-21T03:53:34Z,42.805,6.029,13.2960,4.59965,2470.003,2019-11-21T05:54:02Z
2019-11-21T03:56:37Z,42.805,6.029,13.2958,4.59964,2470.03,2019-11-21T05:57:05Z
2019-11-21T03:59:40Z,42.805,6.029,13.2959,4.59962,2469.993,2019-11-21T06:00:08Z
2019-11-21T04:02:44Z,42.805,6.029,13.2957,4.59966,2469.97,2019-11-21T06:03:12Z
2019-11-21T04:05:47Z,42.805,6.029,13.2954,4.59968,2470.04,2019-11-21T06:06:15Z
2019-11-21T04:08:50Z,42.805,6.029,13.2958,4.59964,2470.007,2019-11-21T06:09:18Z
2019-11-21T04:11:53Z,42.805,6.029,13.2960,4.59964,2470.017,2019-11-21T06:12:21Z
2019-11-21T04:14:57Z,42.805,6.029,13.2956,4.59963,2469.993,2019-11-21T06:15:25Z
2019-11-21T04:18:00Z,42.805,6.029,13.2958,4.59963,2470.007,2019-11-21T06:18:28Z
2019-11-21T04:21:03Z,42.805,6.029,13.2955,4.59961,2470.03,2019-11-21T06:21:31Z
2019-11-21T04:24:06Z,42.805,6.029,13.2957,4.59958,2469.993,2019-11-21T06:24:34Z
2019-11-21T04:27:10Z,42.805,6.029,13.2955,4.59966,2469.97,2019-11-21T06:27:38Z
2019-11-21T04:30:13Z,42.805,6.029,13.2957,4.59965,2470.007,2019-11-21T06:30:41Z
2019-11-21T04:33:16Z,42.805,6.029,13.2960,4.59966,2469.993,2019-11-21T06:33:44Z
2019-11-21T04:36:19Z,42.805,6.029,13.2957,4.59964,2470.03,2019-11-21T06:36:47Z
2019-11-21T04:39:22Z,42.805,6.029,13.2956,4.59963,2469.993,2019-11-21T06:39:51Z
2019-11-21T04:42:26Z,42.805,6.029,13.2961,4.59964,2469.993,2019-11-21T06:42:54Z
2019-11-21T04:45:29Z,42.805,6.029,13.2957,4.59969,2469.993,2019-11-21T06:45:57Z
2019-11-21T04:48:32Z,42.805,6.029,13.2956,4.59966,2469.947,2019-11-21T06:49:00Z
2019-11-21T04:51:36Z,42.805,6.029,13.2959,4.59968,2469.993,2019-11-21T06:52:04Z
2019-11-21T04:54:39Z,42.805,6.029,13.2956,4.59967,2470.007,2019-11-21T06:55:07Z
2019-11-21T04:57:42Z,42.805,6.029,13.2958,4.59964,2470.007,2019-11-21T06:58:10Z
2019-11-21T05:00:45Z,42.805,6.029,13.2955,4.59971,2469.97,2019-11-21T07:01:13Z
2019-11-21T05:03:49Z,42.805,6.029,13.2959,4.59964,2469.984,2019-11-21T07:04:17Z
2019-11-21T05:06:52Z,42.805,6.029,13.2959,4.59968,2470.007,2019-11-21T07:07:20Z
2019-11-21T05:09:55Z,42.805,6.029,13.2959,4.59968,2470.007,2019-11-21T07:10:23Z
2019-11-21T05:12:58Z,42.805,6.029,13.2956,4.59965,2469.97,2019-11-21T07:13:26Z
2019-11-21T05:16:01Z,42.805,6.029,13.2956,4.59964,2470.007,2019-11-21T07:16:30Z
2019-11-21T05:19:05Z,42.805,6.029,13.2958,4.59964,2469.984,2019-11-21T07:19:33Z
2019-11-21T05:22:08Z,42.805,6.029,13.2955,4.59963,2469.993,2019-11-21T07:22:36Z
2019-11-21T05:25:11Z,42.805,6.029,13.2958,4.59963,2469.993,2019-11-21T07:25:39Z
2019-11-21T05:28:15Z,42.805,6.029,13.2958,4.59966,2469.97,2019-11-21T07:28:43Z
2019-11-21T05:31:18Z,42.805,6.029,13.2957,4.59964,2469.993,2019-11-21T07:31:46Z
2019-11-21T05:34:21Z,42.805,6.029,13.2958,4.59966,2469.96,2019-11-21T07:34:49Z
2019-11-21T05:37:24Z,42.805,6.029,13.2957,4.59968,2469.947,2019-11-21T07:37:53Z
2019-11-21T05:40:28Z,42.805,6.029,13.2961,4.59968,2470.007,2019-11-21T07:40:56Z
2019-11-21T05:43:31Z,42.805,6.029,13.2954,4.59971,2469.97,2019-11-21T07:43:59Z
2019-11-21T05:46:34Z,42.805,6.029,13.2957,4.59966,2469.993,2019-11-21T07:47:02Z
2019-11-21T05:49:37Z,42.805,6.029,13.2957,4.59966,2469.947,2019-11-21T07:50:06Z
2019-11-21T05:52:41Z,42.805,6.029,13.2958,4.59966,2469.96,2019-11-21T07:53:09Z
2019-11-21T05:55:44Z,42.805,6.029,13.2961,4.59964,2469.97,2019-11-21T07:56:12Z
2019-11-21T05:58:47Z,42.805,6.029,13.2960,4.59964,2469.96,2019-11-21T07:59:15Z
2019-11-21T06:01:50Z,42.805,6.029,13.2959,4.59963,2469.984,2019-11-21T08:02:19Z
2019-11-21T06:04:54Z,42.805,6.029,13.2956,4.59966,2469.947,2019-11-21T08:05:22Z
2019-11-21T06:07:57Z,42.805,6.029,13.2957,4.59964,2469.993,2019-11-21T08:08:25Z
2019-11-21T06:11:00Z,42.805,6.029,13.2957,4.59964,2469.984,2019-11-21T08:11:28Z
2019-11-21T06:14:03Z,42.805,6.029,13.2957,4.59964,2469.97,2019-11-21T08:14:32Z
2019-11-21T06:17:07Z,42.805,6.029,13.2957,4.59964,2469.923,2019-11-21T08:17:35Z
2019-11-21T06:20:10Z,42.805,6.029,13.2955,4.59964,2469.97,2019-11-21T08:20:38Z
2019-11-21T06:23:13Z,42.805,6.029,13.2955,4.59969,2469.97,2019-11-21T08:23:41Z
2019-11-21T06:26:16Z,42.805,6.029,13.2958,4.59965,2469.96,2019-11-21T08:26:45Z
2019-11-21T06:29:20Z,42.805,6.029,13.2959,4.59967,2469.96,2019-11-21T08:29:48Z
2019-11-21T06:32:23Z,42.805,6.029,13.2958,4.59964,2469.937,2019-11-21T08:32:51Z
2019-11-21T06:35:26Z,42.805,6.029,13.2960,4.59964,2469.984,2019-11-21T08:35:54Z
2019-11-21T06:38:29Z,42.805,6.029,13.2959,4.59963,2469.984,2019-11-21T08:38:58Z
2019-11-21T06:41:33Z,42.805,6.029,13.2956,4.59970,2469.96,2019-11-21T08:42:01Z
2019-11-21T06:44:36Z,42.805,6.029,13.2958,4.59964,2469.947,2019-11-21T08:45:04Z
2019-11-21T06:47:39Z,42.805,6.029,13.2959,4.59970,2469.984,2019-11-21T08:48:07Z
2019-11-21T06:50:43Z,42.805,6.029,13.2953,4.59967,2469.947,2019-11-21T08:51:11Z
2019-11-21T06:53:46Z,42.805,6.029,13.2958,4.59965,2469.937,2019-11-21T08:54:14Z
2019-11-21T06:56:49Z,42.805,6.029,13.2958,4.59966,2469.96,2019-11-21T08:57:17Z
2019-11-21T06:59:52Z,42.805,6.029,13.2957,4.59964,2469.984,2019-11-21T09:00:21Z
2019-11-21T07:02:56Z,42.805,6.029,13.2956,4.59963,2469.947,2019-11-21T09:03:24Z
2019-11-21T07:05:59Z,42.805,6.029,13.2958,4.59962,2469.947,2019-11-21T09:06:27Z
2019-11-21T07:09:02Z,42.805,6.029,13.2954,4.59968,2469.923,2019-11-21T09:09:30Z
2019-11-21T07:12:05Z,42.805,6.029,13.2957,4.59968,2469.947,2019-11-21T09:12:34Z
2019-11-21T07:15:09Z,42.805,6.029,13.2957,4.59964,2469.96,2019-11-21T09:15:37Z
2019-11-21T07:18:12Z,42.805,6.029,13.2962,4.59966,2469.97,2019-11-21T09:18:40Z
2019-11-21T07:21:15Z,42.805,6.029,13.2958,4.59967,2469.96,2019-11-21T09:21:43Z
2019-11-21T07:24:18Z,42.805,6.029,13.2959,4.59968,2469.933,2019-11-21T09:24:46Z
2019-11-21T07:27:21Z,42.805,6.029,13.2957,4.59971,2469.97,2019-11-21T09:27:50Z
2019-11-21T07:30:25Z,42.805,6.029,13.2957,4.59971,2469.96,2019-11-21T09:30:53Z
2019-11-21T07:33:28Z,42.805,6.029,13.2957,4.59976,2469.947,2019-11-21T09:33:56Z
2019-11-21T07:36:31Z,42.805,6.029,13.2958,4.59973,2469.96,2019-11-21T09:37:00Z
2019-11-21T07:39:35Z,42.805,6.029,13.2958,4.59966,2469.937,2019-11-21T09:40:03Z
2019-11-21T07:42:38Z,42.805,6.029,13.2957,4.59964,2469.96,2019-11-21T09:43:06Z
2019-11-21T07:45:41Z,42.805,6.029,13.2959,4.59963,2469.947,2019-11-21T09:46:09Z
2019-11-21T07:48:44Z,42.805,6.029,13.2958,4.59961,2469.96,2019-11-21T09:49:13Z
2019-11-21T07:51:48Z,42.805,6.029,13.2956,4.59962,2469.97,2019-11-21T09:52:16Z
2019-11-21T07:54:51Z,42.805,6.029,13.2961,4.59964,2469.947,2019-11-21T09:55:19Z
2019-11-21T07:57:54Z,42.805,6.029,13.2959,4.59961,2469.937,2019-11-21T09:58:22Z
2019-11-21T08:00:57Z,42.805,6.029,13.2956,4.59961,2469.96,2019-11-21T10:01:25Z
2019-11-21T08:04:01Z,42.805,6.029,13.2960,4.59964,2469.993,2019-11-21T10:04:29Z
2019-11-21T08:07:04Z,42.805,6.029,13.2959,4.59969,2469.993,2019-11-21T10:07:32Z
2019-11-21T08:10:07Z,42.805,6.029,13.2960,4.59965,2469.923,2019-11-21T10:10:35Z
2019-11-21T08:13:10Z,42.805,6.029,13.2959,4.59961,2469.947,2019-11-21T10:13:38Z
2019-11-21T08:16:13Z,42.805,6.029,13.2958,4.59961,2469.97,2019-11-21T10:16:42Z
2019-11-21T08:19:17Z,42.805,6.029,13.2958,4.59961,2469.947,2019-11-21T10:19:45Z
2019-11-21T08:22:20Z,42.805,6.029,13.2957,4.59963,2469.937,2019-11-21T10:22:48Z
2019-11-21T08:25:23Z,42.805,6.029,13.2962,4.59962,2469.937,2019-11-21T10:25:51Z
2019-11-21T08:28:26Z,42.805,6.029,13.2961,4.59960,2469.923,2019-11-21T10:28:55Z
2019-11-21T08:31:30Z,42.805,6.029,13.2957,4.59962,2469.96,2019-11-21T10:31:58Z
2019-11-21T08:34:33Z,42.805,6.029,13.2961,4.59961,2469.937,2019-11-21T10:35:01Z
2019-11-21T08:37:36Z,42.805,6.029,13.2956,4.59962,2469.9,2019-11-21T10:38:05Z
2019-11-21T08:40:40Z,42.805,6.029,13.2957,4.59962,2469.947,2019-11-21T10:41:08Z
2019-11-21T08:43:43Z,42.805,6.029,13.2958,4.59962,2469.947,2019-11-21T10:44:11Z
2019-11-21T08:46:46Z,42.805,6.029,13.2963,4.59962,2469.984,2019-11-21T10:47:14Z
2019-11-21T08:49:49Z,42.805,6.029,13.2962,4.59961,2469.947,2019-11-21T10:50:17Z
2019-11-21T08:52:53Z,42.805,6.029,13.2957,4.59961,2469.947,2019-11-21T10:53:21Z
2019-11-21T08:55:56Z,42.805,6.029,13.2958,4.59960,2469.96,2019-11-21T10:56:24Z
2019-11-21T08:58:59Z,42.805,6.029,13.2956,4.59960,2469.96,2019-11-21T10:59:27Z
2019-11-21T09:02:02Z,42.805,6.029,13.2955,4.59961,2469.937,2019-11-21T11:02:30Z
2019-11-21T09:05:06Z,42.805,6.029,13.2955,4.59961,2469.96,2019-11-21T11:05:34Z
2019-11-21T09:08:09Z,42.805,6.029,13.2959,4.59961,2469.97,2019-11-21T11:08:37Z
2019-11-21T09:11:12Z,42.805,6.029,13.2958,4.59961,2469.97,2019-11-21T11:11:40Z
2019-11-21T09:14:15Z,42.805,6.029,13.2958,4.59964,2469.97,2019-11-21T11:14:43Z
2019-11-21T09:17:19Z,42.805,6.029,13.2958,4.59961,2470.007,2019-11-21T11:17:47Z
2019-11-21T09:20:22Z,42.805,6.029,13.2957,4.59961,2469.993,2019-11-21T11:20:50Z
2019-11-21T09:23:25Z,42.805,6.029,13.2956,4.59961,2469.984,2019-11-21T11:23:53Z
2019-11-21T09:26:28Z,42.805,6.029,13.2958,4.59960,2470.007,2019-11-21T11:26:57Z
2019-11-21T09:29:32Z,42.805,6.029,13.2958,4.59963,2469.97,2019-11-21T11:30:00Z
2019-11-21T09:32:35Z,42.805,6.029,13.2959,4.59962,2469.96,2019-11-21T11:33:03Z
2019-11-21T09:35:38Z,42.805,6.029,13.2957,4.59961,2469.97,2019-11-21T11:36:06Z
2019-11-21T09:38:41Z,42.805,6.029,13.2961,4.59962,2469.979,2019-11-21T11:39:10Z
2019-11-21T09:41:45Z,42.805,6.029,13.2957,4.59961,2469.97,2019-11-21T11:42:13Z
2019-11-21T09:44:48Z,42.805,6.029,13.2954,4.59961,2469.984,2019-11-21T11:45:16Z
2019-11-21T09:47:51Z,42.805,6.029,13.2958,4.59958,2469.947,2019-11-21T11:48:19Z
2019-11-21T09:50:54Z,42.805,6.029,13.2957,4.59959,2469.993,2019-11-21T11:51:23Z
2019-11-21T09:53:58Z,42.805,6.029,13.2958,4.59959,2469.984,2019-11-21T11:54:26Z
2019-11-21T09:57:01Z,42.805,6.029,13.2957,4.59960,2469.947,2019-11-21T11:57:29Z
2019-11-21T10:00:04Z,42.805,6.029,13.2958,4.59961,2469.997,2019-11-21T12:00:33Z
2019-11-21T10:03:08Z,42.805,6.029,13.2953,4.59960,2469.984,2019-11-21T12:03:36Z
2019-11-21T10:06:11Z,42.805,6.029,13.2957,4.59959,2469.984,2019-11-21T12:06:39Z
2019-11-21T10:09:14Z,42.805,6.029,13.2958,4.59962,2469.947,2019-11-21T12:09:43Z
2019-11-21T10:12:18Z,42.805,6.029,13.2961,4.59960,2469.984,2019-11-21T12:12:46Z
2019-11-21T10:15:21Z,42.805,6.029,13.2957,4.59957,2469.993,2019-11-21T12:15:49Z
2019-11-21T10:18:24Z,42.805,6.029,13.2959,4.59961,2469.97,2019-11-21T12:18:52Z
2019-11-21T10:21:27Z,42.805,6.029,13.2957,4.59961,2470.007,2019-11-21T12:21:55Z
2019-11-21T10:24:31Z,42.805,6.029,13.2957,4.59960,2469.97,2019-11-21T12:24:59Z
2019-11-21T10:27:34Z,42.805,6.029,13.2957,4.59960,2470.017,2019-11-21T12:28:02Z
2019-11-21T10:30:37Z,42.805,6.029,13.2954,4.59961,2469.984,2019-11-21T12:31:05Z
2019-11-21T10:33:40Z,42.805,6.029,13.2958,4.59961,2470.03,2019-11-21T12:34:08Z
2019-11-21T10:36:43Z,42.805,6.029,13.2954,4.59961,2469.97,2019-11-21T12:37:12Z
2019-11-21T10:39:47Z,42.805,6.029,13.2959,4.59961,2469.993,2019-11-21T12:40:15Z
2019-11-21T10:42:50Z,42.805,6.029,13.2959,4.59963,2469.947,2019-11-21T12:43:18Z
2019-11-21T10:45:53Z,42.805,6.029,13.2958,4.59963,2470.007,2019-11-21T12:46:21Z
2019-11-21T10:48:57Z,42.805,6.029,13.2951,4.59961,2469.97,2019-11-21T12:49:25Z
2019-11-21T10:52:00Z,42.805,6.029,13.2956,4.59961,2470.007,2019-11-21T12:52:28Z
2019-11-21T10:55:03Z,42.805,6.029,13.2957,4.59960,2469.97,2019-11-21T12:55:31Z
2019-11-21T10:58:06Z,42.805,6.029,13.2958,4.59961,2469.993,2019-11-21T12:58:34Z
2019-11-21T11:01:09Z,42.805,6.029,13.2961,4.59961,2470.04,2019-11-21T13:01:38Z
2019-11-21T11:04:13Z,42.805,6.029,13.2956,4.59960,2470.03,2019-11-21T13:04:41Z
2019-11-21T11:07:16Z,42.805,6.029,13.2961,4.59961,2469.97,2019-11-21T13:07:44Z
2019-11-21T11:10:19Z,42.805,6.029,13.2958,4.59960,2469.993,2019-11-21T13:10:47Z
2019-11-21T11:13:22Z,42.805,6.029,13.2954,4.59960,2470.017,2019-11-21T13:13:51Z
2019-11-21T11:16:26Z,42.805,6.029,13.2958,4.59961,2470.04,2019-11-21T13:16:54Z
2019-11-21T11:19:29Z,42.805,6.029,13.2958,4.59963,2469.97,2019-11-21T13:19:57Z
2019-11-21T11:22:32Z,42.805,6.029,13.2957,4.59958,2469.993,2019-11-21T13:23:00Z
2019-11-21T11:25:35Z,42.805,6.029,13.2954,4.59959,2469.993,2019-11-21T13:26:03Z
2019-11-21T11:28:38Z,42.805,6.029,13.2958,4.59959,2470.017,2019-11-21T13:29:07Z
2019-11-21T11:31:42Z,42.805,6.029,13.2957,4.59959,2470.017,2019-11-21T13:32:10Z
2019-11-21T11:34:45Z,42.805,6.029,13.2958,4.59959,2470.017,2019-11-21T13:35:13Z
2019-11-21T11:37:48Z,42.805,6.029,13.2964,4.59958,2470.03,2019-11-21T13:38:16Z
2019-11-21T11:40:51Z,42.805,6.029,13.2958,4.59958,2470.03,2019-11-21T13:41:20Z
2019-11-21T11:43:55Z,42.805,6.029,13.2961,4.59961,2470.017,2019-11-21T13:44:23Z
2019-11-21T11:46:58Z,42.805,6.029,13.2956,4.59961,2470.017,2019-11-21T13:47:26Z
2019-11-21T11:50:01Z,42.805,6.029,13.2956,4.59961,2470.007,2019-11-21T13:50:29Z
2019-11-21T11:53:04Z,42.805,6.029,13.2960,4.59960,2470.03,2019-11-21T13:53:33Z
2019-11-21T11:56:08Z,42.805,6.029,13.2957,4.59958,2470.053,2019-11-21T13:56:36Z
2019-11-21T11:59:11Z,42.805,6.029,13.2957,4.59959,2470.063,2019-11-21T13:59:39Z
2019-11-21T12:02:14Z,42.805,6.029,13.2961,4.59958,2470.007,2019-11-21T14:02:43Z
2019-11-21T12:05:18Z,42.805,6.029,13.2958,4.59958,2470.1,2019-11-21T14:05:46Z
2019-11-21T12:08:21Z,42.805,6.029,13.2958,4.59958,2470.063,2019-11-21T14:08:49Z
2019-11-21T12:11:24Z,42.805,6.029,13.2957,4.59961,2470.03,2019-11-21T14:11:52Z
2019-11-21T12:14:27Z,42.805,6.029,13.2958,4.59960,2470.04,2019-11-21T14:14:55Z
2019-11-21T12:17:31Z,42.805,6.029,13.2958,4.59962,2470.04,2019-11-21T14:17:59Z
2019-11-21T12:20:34Z,42.805,6.029,13.2955,4.59959,2470.04,2019-11-21T14:21:02Z
2019-11-21T12:23:37Z,42.805,6.029,13.2961,4.59958,2470.017,2019-11-21T14:24:05Z
2019-11-21T12:26:40Z,42.805,6.029,13.2957,4.59958,2470.053,2019-11-21T14:27:08Z
2019-11-21T12:29:43Z,42.805,6.029,13.2958,4.59960,2470.053,2019-11-21T14:30:12Z
2019-11-21T12:32:47Z,42.805,6.029,13.2958,4.59963,2470.063,2019-11-21T14:33:15Z
2019-11-21T12:35:50Z,42.805,6.029,13.2960,4.59960,2470.077,2019-11-21T14:36:18Z
2019-11-21T12:38:53Z,42.805,6.029,13.2956,4.59960,2470.017,2019-11-21T14:39:21Z
2019-11-21T12:41:56Z,42.805,6.029,13.2957,4.59958,2470.087,2019-11-21T14:42:24Z
2019-11-21T12:44:59Z,42.805,6.029,13.2959,4.59961,2470.077,2019-11-21T14:45:28Z
2019-11-21T12:48:03Z,42.805,6.029,13.2954,4.59960,2470.077,2019-11-21T14:48:31Z
2019-11-21T12:51:06Z,42.805,6.029,13.2957,4.59958,2470.03,2019-11-21T14:51:34Z
2019-11-21T12:54:09Z,42.805,6.029,13.2956,4.59959,2470.053,2019-11-21T14:54:37Z
2019-11-21T12:57:12Z,42.805,6.029,13.2958,4.59961,2470.04,2019-11-21T14:57:41Z
2019-11-21T13:00:15Z,42.805,6.029,13.2959,4.59959,2470.077,2019-11-21T15:00:44Z
2019-11-21T13:03:19Z,42.805,6.029,13.2958,4.59960,2470.087,2019-11-21T15:03:47Z
2019-11-21T13:06:22Z,42.805,6.029,13.2957,4.59960,2470.04,2019-11-21T15:06:50Z
2019-11-21T13:09:25Z,42.805,6.029,13.2958,4.59959,2470.063,2019-11-21T15:09:53Z
2019-11-21T13:12:28Z,42.805,6.029,13.2956,4.59959,2470.063,2019-11-21T15:12:56Z
2019-11-21T13:15:31Z,42.805,6.029,13.2957,4.59958,2470.077,2019-11-21T15:16:00Z
2019-11-21T13:18:35Z,42.805,6.029,13.2961,4.59958,2470.063,2019-11-21T15:19:03Z
2019-11-21T13:21:38Z,42.805,6.029,13.2957,4.59960,2470.063,2019-11-21T15:22:06Z
2019-11-21T13:24:41Z,42.805,6.029,13.2958,4.59961,2470.1,2019-11-21T15:25:09Z
2019-11-21T13:27:44Z,42.805,6.029,13.2957,4.59959,2470.063,2019-11-21T15:28:13Z
2019-11-21T13:30:48Z,42.805,6.029,13.2958,4.59962,2470.087,2019-11-21T15:31:16Z
2019-11-21T13:33:51Z,42.805,6.029,13.2957,4.59960,2470.077,2019-11-21T15:34:19Z
2019-11-21T13:36:54Z,42.805,6.029,13.2958,4.59960,2470.077,2019-11-21T15:37:22Z
2019-11-21T13:39:57Z,42.805,6.029,13.2959,4.59961,2470.063,2019-11-21T15:40:25Z
2019-11-21T13:43:00Z,42.805,6.029,13.2958,4.59959,2470.1,2019-11-21T15:43:29Z
2019-11-21T13:46:04Z,42.805,6.029,13.2958,4.59958,2470.077,2019-11-21T15:46:32Z
2019-11-21T13:49:07Z,42.805,6.029,13.2957,4.59958,2470.124,2019-11-21T15:49:35Z
2019-11-21T13:52:10Z,42.805,6.029,13.2956,4.59959,2470.063,2019-11-21T15:52:38Z
2019-11-21T13:55:13Z,42.805,6.029,13.2957,4.59958,2470.087,2019-11-21T15:55:42Z
2019-11-21T13:58:17Z,42.805,6.029,13.2954,4.59958,2470.087,2019-11-21T15:58:45Z
2019-11-21T14:01:20Z,42.805,6.029,13.2958,4.59960,2470.11,2019-11-21T16:01:48Z
2019-11-21T14:04:23Z,42.805,6.029,13.2958,4.59959,2470.1,2019-11-21T16:04:52Z
2019-11-21T14:07:27Z,42.805,6.029,13.2956,4.59958,2470.087,2019-11-21T16:07:55Z
2019-11-21T14:10:30Z,42.805,6.029,13.2957,4.59959,2470.124,2019-11-21T16:10:58Z
2019-11-21T14:13:33Z,42.805,6.029,13.2957,4.59959,2470.077,2019-11-21T16:14:01Z
2019-11-21T14:16:36Z,42.805,6.029,13.2964,4.59958,2470.087,2019-11-21T16:17:04Z
2019-11-21T14:19:39Z,42.805,6.029,13.2959,4.59958,2470.1,2019-11-21T16:20:08Z
2019-11-21T14:22:43Z,42.805,6.029,13.2963,4.59963,2470.1,2019-11-21T16:23:11Z
2019-11-21T14:25:46Z,42.805,6.029,13.2959,4.59959,2470.11,2019-11-21T16:26:14Z
2019-11-21T14:28:49Z,42.805,6.029,13.2958,4.59961,2470.087,2019-11-21T16:29:17Z
2019-11-21T14:31:52Z,42.805,6.029,13.2958,4.59960,2470.124,2019-11-21T16:32:20Z
2019-11-21T14:34:55Z,42.805,6.029,13.2957,4.59960,2470.063,2019-11-21T16:35:24Z
2019-11-21T14:37:59Z,42.805,6.029,13.2958,4.59961,2470.11,2019-11-21T16:38:27Z
2019-11-21T14:41:02Z,42.805,6.029,13.2957,4.59961,2470.1,2019-11-21T16:41:30Z
2019-11-21T14:44:05Z,42.805,6.029,13.2960,4.59958,2470.063,2019-11-21T16:44:33Z
2019-11-21T14:47:08Z,42.805,6.029,13.2956,4.59961,2470.077,2019-11-21T16:47:37Z
2019-11-21T14:50:12Z,42.805,6.029,13.2961,4.59961,2470.087,2019-11-21T16:50:40Z
2019-11-21T14:53:15Z,42.805,6.029,13.2961,4.59960,2470.124,2019-11-21T16:53:43Z
2019-11-21T14:56:18Z,42.805,6.029,13.2957,4.59958,2470.1,2019-11-21T16:56:46Z
2019-11-21T14:59:21Z,42.805,6.029,13.2959,4.59958,2470.133,2019-11-21T16:59:49Z
2019-11-21T15:02:24Z,42.805,6.029,13.2961,4.59961,2470.124,2019-11-21T17:02:53Z